FW8660 Weather Reports


time (UTC)temp
F
wind
direction
speed
knots
gust
knots
rain 1hr
in
rain 24hr
in
rain mn
in
humidity
%
barometer
mb
20260510210028 67 0 0.0 1.7 0.00 0.00 0.00 64 1013.3
20260510204539 67 0 0.0 4.3 0.00 0.00 0.00 63 1013.1
20260510203029 68 318 0.9 4.3 0.00 0.00 0.00 63 1012.9
20260510201527 69 278 0.9 2.6 0.00 0.00 0.00 61 1012.4
20260510200028 69 0 0.0 1.7 0.00 0.00 0.00 60 1012.1
20260510194543 70 252 1.7 3.5 0.00 0.00 0.00 59 1011.9
20260510193028 70 211 1.7 7.8 0.00 0.00 0.00 58 1011.8
20260510191529 70 207 1.7 5.2 0.00 0.00 0.00 57 1011.7
20260510190042 71 202 3.5 7.8 0.00 0.00 0.00 56 1011.5
20260510184530 71 188 2.6 7.8 0.00 0.00 0.00 55 1011.4
20260510183030 71 198 7.0 14.8 0.00 0.00 0.00 53 1011.3
20260510181528 72 173 7.0 13.9 0.00 0.00 0.00 53 1011.3
20260510180027 72 190 6.1 13.9 0.00 0.00 0.00 52 1011.4
20260510174527 73 173 7.8 19.1 0.00 0.00 0.00 51 1011.2
20260510173030 73 207 10.4 19.1 0.00 0.00 0.00 50 1011.1
20260510171530 74 154 8.7 16.5 0.00 0.00 0.00 51 1011.1
20260510170029 74 202 6.1 14.8 0.00 0.00 0.00 51 1011.0
20260510164528 74 192 7.8 14.8 0.00 0.00 0.00 50 1011.1
20260510163028 74 177 7.8 15.6 0.00 0.00 0.00 50 1011.1
20260510161528 75 201 8.7 15.6 0.00 0.00 0.00 49 1011.2
20260510160035 75 189 10.4 19.1 0.00 0.00 0.00 48 1011.2
20260510154529 75 181 11.3 20.9 0.00 0.00 0.00 47 1011.2
20260510153032 76 212 9.6 25.2 0.00 0.00 0.00 47 1011.2
20260510151530 76 266 6.1 24.3 0.00 0.00 0.00 48 1011.2
20260510150030 76 183 11.3 23.5 0.00 0.00 0.00 47 1011.5
20260510144533 76 188 7.0 13.0 0.00 0.00 0.00 48 1011.6
20260510143028 76 189 7.8 13.9 0.00 0.00 0.00 48 1011.8
20260510141527 76 169 10.4 21.7 0.00 0.00 0.00 48 1011.8
20260510140028 76 196 8.7 18.2 0.00 0.00 0.00 47 1012.2
20260510134530 78 200 7.0 16.5 0.00 0.00 0.00 45 1012.3
20260510133034 77 163 8.7 18.2 0.00 0.00 0.00 47 1012.5
20260510131535 77 202 7.8 20.9 0.00 0.00 0.00 44 1012.7
20260510130028 77 232 6.1 14.8 0.00 0.00 0.00 49 1012.8
20260510124531 76 210 7.8 15.6 0.00 0.00 0.00 50 1013.0
20260510123030 77 192 7.0 17.4 0.00 0.00 0.00 48 1013.0
20260510121532 77 210 5.2 10.4 0.00 0.00 0.00 51 1013.2
20260510120030 75 188 2.6 8.7 0.00 0.00 0.00 63 1013.5
20260510114545 75 185 4.3 12.2 0.00 0.00 0.00 64 1013.7
20260510113039 75 178 4.3 7.8 0.00 0.00 0.00 63 1014.0
20260510111533 75 202 4.3 11.3 0.00 0.00 0.00 59 1014.3
20260510110037 76 126 6.1 13.9 0.00 0.00 0.00 56 1014.3
20260510104528 76 202 3.5 12.2 0.00 0.00 0.00 53 1014.4
20260510103027 75 181 4.3 11.3 0.00 0.00 0.00 53 1014.4
20260510101528 72 347 4.3 7.8 0.00 0.00 0.00 61 1014.6
20260510100033 72 174 5.2 8.7 0.00 0.00 0.00 64 1014.7
20260510094535 71 125 2.6 8.7 0.00 0.12 0.00 67 1014.7
20260510093030 70 0 1.7 6.1 0.00 0.12 0.00 66 1014.9
20260510091530 70 315 0.0 4.3 0.00 0.12 0.00 68 1015.0
20260510090029 68 0 0.0 5.2 0.00 0.12 0.00 69 1015.0
20260510084530 67 0 0.0 3.5 0.00 0.20 0.00 72 1015.2
20260510083030 66 251 0.9 2.6 0.00 0.20 0.00 74 1015.3
20260510081533 64 269 1.7 3.5 0.00 0.20 0.00 77 1015.3
20260510080031 62 274 0.9 1.7 0.00 0.20 0.00 81 1015.3
20260510074538 62 274 0.0 2.6 0.00 0.30 0.00 84 1015.5
20260510073028 60 273 1.7 4.3 0.00 0.30 0.00 85 1015.6
20260510071528 59 258 2.6 6.1 0.00 0.30 0.00 86 1015.6
20260510070033 58 246 2.6 6.1 0.00 0.30 0.00 87 1015.5
20260510064531 58 294 0.9 2.6 0.00 0.38 0.00 89 1015.4
20260510063027 57 0 0.0 0.9 0.00 0.38 0.00 89 1015.2
20260510061530 56 0 0.0 1.7 0.00 0.38 0.00 89 1015.2
20260510060033 56 0 0.0 0.0 0.00 0.38 0.00 89 1015.3
20260510054531 56 0 0.0 1.7 0.00 0.42 0.00 89 1014.9
20260510053029 55 108 0.0 2.6 0.00 0.42 0.00 89 1014.9
20260510051532 54 95 0.0 1.7 0.00 0.42 0.00 88 1014.8
20260510050031 54 0 0.0 0.0 0.00 0.42 0.00 88 1014.9
20260510044530 54 0 0.0 0.9 0.00 0.42 0.00 88 1014.8
20260510043028 54 0 0.0 1.7 0.00 0.42 0.00 88 1014.9
20260510041544 55 0 0.0 1.7 0.00 0.42 0.00 88 1014.8
20260510040032 55 0 0.0 2.6 0.00 0.42 0.00 87 1014.7
20260510034530 55 96 0.0 1.7 0.00 0.42 0.00 87 1014.7
20260510033028 55 0 0.0 1.7 0.00 0.42 0.00 87 1014.7
20260510031534 55 0 0.0 1.7 0.00 0.42 0.00 87 1014.6
20260510030029 55 0 0.9 2.6 0.00 0.42 0.00 87 1014.5
20260510024527 55 96 0.9 2.6 0.00 0.42 0.00 87 1014.5
20260510023030 56 96 0.0 0.9 0.00 0.42 0.00 87 1014.4
20260510021535 56 0 0.0 1.7 0.00 0.42 0.00 86 1014.4
20260510020032 57 96 1.7 3.5 0.00 0.42 0.00 86 1014.3
20260510014534 57 0 0.0 1.7 0.00 0.42 0.00 86 1014.3
20260510013032 58 0 0.9 6.1 0.00 0.42 0.00 86 1014.2
20260510011530 57 113 0.9 3.5 0.00 0.42 0.00 86 1014.2
20260510010028 57 95 4.3 6.1 0.00 0.42 0.00 86 1014.4
20260510004531 58 118 2.6 5.2 0.00 0.42 0.00 86 1014.5
20260510003033 58 109 4.3 6.1 0.00 0.42 0.00 85 1014.6
20260510001538 57 120 3.5 6.1 0.00 0.42 0.00 84 1014.8
20260510000028 57 94 2.6 6.1 0.00 0.42 0.00 83 1014.7
20260509234530 57 110 1.7 3.5 0.00 0.42 0.00 82 1014.7
20260509233030 59 47 0.9 2.6 0.00 0.42 0.00 81 1014.9
20260509231531 59 105 1.7 2.6 0.00 0.42 0.00 80 1014.9
20260509230030 60 0 0.0 2.6 0.00 0.42 0.00 80 1014.9
20260509224530 60 348 0.9 2.6 0.00 0.42 0.00 80 1015.0
20260509223030 61 0 0.0 2.6 0.00 0.42 0.00 79 1015.0
20260509221527 61 0 0.0 0.0 0.00 0.42 0.00 78 1015.0
20260509220028 61 0 0.0 0.0 0.00 0.42 0.00 78 1014.9
20260509214537 62 0 0.0 0.0 0.00 0.42 0.42 77 1014.8
20260509213029 62 0 0.0 3.5 0.00 0.42 0.42 76 1014.7
20260509211529 62 195 1.7 6.1 0.00 0.42 0.42 76 1014.6